Regional Weather Roundup
Issued by NWS

Home | Current Version | Previous Version | Text Only | Print | Product List | Glossary On
Versions: 1 2 3 4 5 6 7 8 9 10 11 12 13 14 15 16 17 18 19 20 21 22 23 24 25 26 27 28 29 30 31 32 33 34 35 36 37 38 39 40 41 42 43 44 45 46 47 48 49 50
000
ASUS43 KDTX 010701
RWRMI
MICHIGAN HOURLY REGIONAL WEATHER ROUNDUP
NATIONAL WEATHER SERVICE DETROIT/PONTIAC MI
300 AM EDT SUN MAY 01 2016

NOTE: "FAIR" INDICATES FEW OR NO CLOUDS BELOW 12,000 FEET WITH NO
SIGNIFICANT WEATHER AND/OR OBSTRUCTION TO VISIBILITY.

MIZ047>049-052>055-059>063-066>070-074>076-081>083-010800-
SOUTHEAST LOWER MICHIGAN

CITY           SKY/WX    TMP DP  RH WIND       PRES   REMARKS
ADRIAN         LGT RAIN  49  47  93 NE8       29.91S FOG
ALMA           CLOUDY    42  41  97 N7        29.98F
ANN ARBOR      CLOUDY    48  46  93 NE8       29.91F
BAD AXE        LGT RAIN  43  42  95 E6        30.00F
CARO           RAIN      44  43  97 E12G18    29.92F
DETROIT CITY   CLOUDY    47  45  93 NE10      29.93F
DETROIT        CLOUDY    49  47  93 NE10      29.91F
FLINT          CLOUDY    48  44  86 E7        29.96F
GROSSE ILE     CLOUDY    48  46  93 NE13      29.89F
HILLSDALE      DRIZZLE   47  47 100 NE8       29.88F
HOWELL         CLOUDY    45  45  99 NE7       29.92F

CITY           SKY/WX    TMP DP  RH WIND       PRES   REMARKS
JACKSON        CLOUDY    47  46  97 NE9       29.91F
LAMBERTVILLE   DRIZZLE   50  48  93 NE5       29.90S
LANSING        CLOUDY    45  43  93 NE8       29.96F FOG
LAPEER         CLOUDY    44  43  96 NE3G17    29.96R
MASON          CLOUDY    45  43  95 NE8       29.94S FOG
MONROE         CLOUDY    48  48  99 NE8       29.89F
MT. CLEMENS    CLOUDY    48  48 100 NE13      29.92F
PONTIAC        CLOUDY    47  45  93 E9        29.92F
PORT HOPE        N/A     43  41  93 NE6       30.01F
PORT HURON     LGT RAIN  45  43  93 NE14      29.94F
TRI CITIES     CLOUDY    46  43  89 NE7       30.00R
MIDLAND        CLOUDY    42  41  95 CALM      29.99R
TROY           CLOUDY    48  47  97 NE10      29.95S
SAGINAW HB     CLOUDY    45  43  93 NE8       29.99R
$$
MIZ043>046-050>051-056>058-064>065-071>073-077>080-010800-
SOUTHWEST LOWER MICHIGAN

CITY           SKY/WX    TMP DP  RH WIND       PRES   REMARKS
BATTLE CREEK   CLOUDY    47  45  93 NE12      29.91F FOG
BENTON HARBOR  CLOUDY    49  47  93 E9        29.90F
BIG RAPIDS     DRIZZLE   42  38  84 NE8       29.97F
COLDWATER      LGT RAIN  48  48 100 NE8       29.88F
FREMONT        CLOUDY    43  41  94 NE7       29.98R
HOLLAND        CLOUDY    47  45  93 NE10G17   29.93F FOG
GRAND RAPIDS   CLOUDY    46  43  89 NE13      29.95S
IONIA          LGT SNOW  43  42  97 NE9       29.95S
KALAMAZOO      LGT RAIN  49  45  86 NE7       29.90F FOG
LUDINGTON      LGT RAIN  43  42  97 CALM      30.02F
MARSHALL       CLOUDY    47  46  95 NE5       29.90F FOG
MOUNT PLEASANT RAIN      41  40  93 N6        29.99F
MUSKEGON       CLOUDY    44  40  85 NE10      29.97R
$$
MIZ016>042-010800-
NORTHERN LOWER MICHIGAN

CITY           SKY/WX    TMP DP  RH WIND       PRES   REMARKS
ALPENA         CLOUDY    44  29  55 SE5       30.05F
BEAVER ISLAND  CLOUDY    41  36  83 NE6       30.07F
BELLAIRE       CLOUDY    49  24  36 NE8       30.02F
CADILLAC       DRIZZLE   43  34  70 E3        30.01R
CHARLEVOIX     CLOUDY    47  28  47 NE6       30.08S
FRANKFORT      CLOUDY    49  33  54 CALM      30.04R
GAYLORD        CLOUDY    46  24  42 NE8       30.02F
HARBOR SPRINGS CLOUDY    45  29  54 E8        30.04F
HOUGHTON LAKE  CLOUDY    43  32  65 NE5       30.00F
MANISTEE       CLOUDY    46  36  66 CALM      30.04R
OSCODA         CLOUDY    44  37  73 NE7       30.02F
PELLSTON       CLOUDY    42  33  70 CALM      30.06F
ROGERS CITY    CLOUDY    43  31  63 E6        30.06F
TRAVERSE CITY  CLOUDY    46  34  62 W8        30.03R
$$
MIZ007>008-015-010800-
EASTERN UPPER MICHIGAN

CITY           SKY/WX    TMP DP  RH WIND       PRES   REMARKS
KINROSS          N/A     43  34  70 NE9       30.09F
MACKINAC ISLAN CLOUDY    42  33  70 N6        30.06F
NEWBERRY       CLOUDY    34  33  96 N5        30.09F WCI  30
S. S. MARIE    PTCLDY    47  31  53 NE7       30.10F
MUNISING         N/A     33  31  92 CALM      30.10F
$$
MIZ004>006-011>014-085-010800-
CENTRAL UPPER MICHIGAN

CITY           SKY/WX    TMP DP  RH WIND       PRES   REMARKS
MANISTIQUE     PTCLDY    37  34  88 N7        30.08S WCI  32
ESCANABA       CLOUDY    39  34  81 N5        30.09F
MENOMINEE      CLOUDY    43  32  65 N8        30.08S
SAWYER-GWINN   CLOUDY    36  33  90 N9        30.11F WCI  29
$$
MIZ001>003-009>011-084-010800-
WESTERN UPPER MICHIGAN

CITY           SKY/WX    TMP DP  RH WIND       PRES   REMARKS
IRON MOUNTAIN  PTCLDY    38  32  79 W6        30.10F WCI  33
HOUGHTON       CLOUDY    40  34  79 NE10      30.16F WCI  33
COPPER HARBOR    N/A     38  36  92 NE3       30.20F
IRONWOOD         N/A     34  32  93 NE3       30.16F
$$

ABBREVIATIONS USED IN REMARKS
   TC - TEMPERATURE IN CELSIUS
  WCI - WIND CHILL INDEX
   HX - HEAT INDEX
  VSB - VISIBILITY




USA.gov is the U.S. government's official web portal to all federal, state and local government web resources and services.